Weather History for Corpus Christi, TX

Change the Weather History Date:

Saturday, January 19, 2013

  Actual Average Record
Temperature  
Mean Temperature 60 °F 57 °F  
Max Temperature 74 °F 67 °F 87 °F (2000)
Min Temperature 45 °F 47 °F 19 °F (1940)
Degree Days  
Heating Degree Days 5 9  
Month to date heating degree days 185 171  
Since 1 July heating degree days 360 522  
Cooling Degree Days 0 1  
Month to date cooling degree days 11 19  
Year to date cooling degree days 11 19  
Growing Degree Days 9 (Base 50)    
Moisture  
Dew Point 47 °F    
Average Humidity 64    
Maximum Humidity 93    
Minimum Humidity 35    
Precipitation  
Precipitation 0.00 in 0.05 in 1.84 in (1981)
Month to date precipitation 1.25 0.94  
Year to date precipitation 1.25 0.94  
Snow  
Snow 0.00 in - - ()
Month to date snowfall 0.0  
Since 1 July snowfall 0.0  
Snow Depth 0.00 in    
Sea Level Pressure  
Sea Level Pressure 30.24 in    
Wind  
Wind Speed 7 mph (ESE)    
Max Wind Speed 16 mph    
Max Gust Speed 20 mph    
Visibility 10 miles    
Events      
T = Trace of Precipitation, MM = Missing Value Source: NWS Daily Summary

Daily Weather History Graph

Daily Weather History Graph

Search for Another Location

Airport:

Trip Planner

Search our weather history database for the weather conditions in past years. The results will help you decide how hot, cold, wet, or windy it might be!

Date:

Astronomy

Jan. 19, 2013 Rise Set
Actual Time 7:21 AM CST 6:00 PM CST
Civil Twilight 6:56 AM CST 6:25 PM CST
Nautical Twilight 6:27 AM CST 6:54 PM CST
Astronomical Twilight 5:59 AM CST 7:22 PM CST
Moon 12:21 PM CST (1/19) 1:04 AM CST (1/19)
Length of Visible Light 11h 29m
Length of Day
10h 39m
First Quarter, 57% of the Moon is Illuminated
Jan 19
First Quarter
Jan 26
Full
Feb 3
Last Quarter
Feb 10
New
Feb 17
First Quarter

Hourly Weather History & Observations

Time (CST) Temp. Windchill Dew Point Humidity Pressure Visibility Wind Dir Wind Speed Gust Speed Precip Events Conditions
12:51 AM 53.6 °F - 48.2 °F 82% 30.31 in 10.0 mi East 8.1 mph - N/A   Clear
1:51 AM 53.1 °F - 48.0 °F 83% 30.30 in 10.0 mi East 6.9 mph - N/A   Clear
2:51 AM 54.0 °F - 48.0 °F 80% 30.28 in 10.0 mi East 8.1 mph - N/A   Clear
3:51 AM 53.1 °F - 48.0 °F 83% 30.27 in 10.0 mi Calm Calm - N/A   Clear
4:51 AM 46.9 °F - 43.0 °F 86% 30.26 in 10.0 mi North 4.6 mph - N/A   Clear
5:51 AM 46.9 °F - 44.1 °F 90% 30.27 in 10.0 mi North 4.6 mph - N/A   Clear
6:51 AM 45.0 °F 41.8 °F 42.1 °F 90% 30.28 in 10.0 mi North 5.8 mph - N/A   Partly Cloudy
7:51 AM 46.0 °F 44.8 °F 43.0 °F 89% 30.29 in 10.0 mi North 3.5 mph - N/A   Partly Cloudy
8:51 AM 57.0 °F - 51.1 °F 81% 30.30 in 10.0 mi Calm Calm - N/A   Partly Cloudy
9:51 AM 64.9 °F - 52.0 °F 63% 30.31 in 10.0 mi ESE 8.1 mph - N/A   Partly Cloudy
10:51 AM 68.0 °F - 48.9 °F 50% 30.30 in 10.0 mi SE 12.7 mph - N/A   Scattered Clouds
11:51 AM 71.1 °F - 46.9 °F 42% 30.28 in 10.0 mi SSE 9.2 mph - N/A   Scattered Clouds
12:51 PM 73.0 °F - 46.9 °F 39% 30.23 in 10.0 mi South 11.5 mph - N/A   Partly Cloudy
1:51 PM 73.0 °F - 46.0 °F 38% 30.19 in 10.0 mi South 6.9 mph - N/A   Partly Cloudy
2:51 PM 73.9 °F - 45.0 °F 35% 30.18 in 10.0 mi Variable 5.8 mph - N/A   Partly Cloudy
3:51 PM 73.0 °F - 46.9 °F 39% 30.16 in 10.0 mi ESE 12.7 mph - N/A   Partly Cloudy
4:51 PM 71.1 °F - 46.9 °F 42% 30.16 in 10.0 mi SE 13.8 mph - N/A   Partly Cloudy
5:51 PM 66.9 °F - 46.9 °F 49% 30.18 in 10.0 mi SE 12.7 mph - N/A   Partly Cloudy
6:51 PM 63.0 °F - 46.9 °F 56% 30.17 in 10.0 mi SE 11.5 mph - N/A   Clear
7:51 PM 59.0 °F - 46.9 °F 64% 30.20 in 10.0 mi SE 6.9 mph - N/A   Clear
8:51 PM 57.0 °F - 46.9 °F 69% 30.22 in 10.0 mi ESE 5.8 mph - N/A   Clear
9:51 PM 55.9 °F - 46.0 °F 69% 30.24 in 10.0 mi Calm Calm - N/A   Clear
10:51 PM 54.0 °F - 46.0 °F 75% 30.23 in 10.0 mi East 3.5 mph - N/A   Clear
11:51 PM 51.1 °F - 46.0 °F 83% 30.23 in 10.0 mi SE 4.6 mph - N/A   Clear